Home > Weather > Bacolod > Past weeks

Flag for Philippines Weather for the Past 2 Weeks in Bacolod, Philippines

Now
81 °F

Passing clouds.


Feels Like: 86 °F
Forecast: 78 / 88 °F
Wind: 8 mph from Northeast

Location: Masbate Airport

Current Time: Feb 6, 2016 at 10:01:25 PM

Latest Report: Feb 6, 2016 at 9:00 PM


Visibility: N/A

Pressure: 29.89 "Hg

Humidity: 84%

Dew point: 75 °F

Location of BacolodLocation

Historic Weather in Bacolod — Graph

°F

Bacolod Temperature Yesterday

Maximum temperature yesterday: 86 °F (at 11:00 AM)
Minimum temperature yesterday: 79 °F (at 1:00 AM)
Average temperature yesterday: 81 °F

High & Low Weather Summary for the Past Weeks

 TemperatureHumidityPressure
High90 °F (Feb 3, 4:00 PM)100% (Jan 27, 6:00 PM)32.52 "Hg (Jan 27, 6:00 PM)
Low73 °F (Jan 25, 11:00 PM)52% (Jan 23, 3:00 PM)29.77 "Hg (Feb 5, 2:00 PM)
Average80 °F82%29.93 "Hg
* Reported Jan 22 8:00 PM — Feb 6 8:00 PM, Bacolod, Weather by CustomWeather, © 2016

Note: Actual official high and low records may vary slightly from our data, if they occured in-between our weather recording intervals... More about our weather records

Advertising

Bacolod Weather History for the Previous 24 Hours

 ConditionsComfort  
Time TempWeatherWind HumidityBarometerVisibility
8:00 PM
Sat, Feb 6
82 °FPassing clouds.7 mph74%29.86 "HgN/A
7:00 PM82 °FPassing clouds.10 mph74%29.83 "HgN/A
6:00 PM82 °FPassing clouds.8 mph79%29.83 "HgN/A
5:00 PM84 °FPassing clouds.10 mph74%29.83 "HgN/A
4:00 PM84 °FPassing clouds.9 mph70%29.80 "HgN/A
3:00 PM86 °FPassing clouds.10 mph66%29.80 "HgN/A
2:00 PM86 °FPassing clouds.10 mph66%29.83 "HgN/A
1:00 PM88 °FPassing clouds.9 mph66%29.83 "HgN/A
12:00 PM88 °FPassing clouds.9 mph62%29.86 "HgN/A
11:00 AM86 °FPassing clouds.8 mph66%29.89 "HgN/A
10:00 AM84 °FPassing clouds.7 mph70%29.89 "HgN/A
9:00 AM82 °FPassing clouds.7 mph74%29.89 "HgN/A
8:00 AM79 °FPassing clouds.2 mph84%29.86 "HgN/A
7:00 AM75 °FPassing clouds.2 mph89%29.83 "HgN/A
6:00 AM73 °FPassing clouds.1 mph89%29.83 "HgN/A
5:00 AM75 °FPassing clouds.No wind89%29.80 "HgN/A
4:00 AM75 °FPassing clouds.1 mph89%29.80 "HgN/A
3:00 AM77 °FPassing clouds.1 mph83%29.80 "HgN/A
2:00 AM77 °FPassing clouds.2 mph89%29.80 "HgN/A
1:00 AM79 °FPassing clouds.7 mph84%29.83 "HgN/A
12:00 AM79 °FPassing clouds.7 mph84%29.83 "HgN/A
11:00 PM
Fri, Feb 5
79 °FPassing clouds.9 mph84%29.86 "HgN/A
10:00 PM79 °FPassing clouds.5 mph84%29.83 "HgN/A
Weather by CustomWeather, © 2016

See weather overviewHow to use our weather pages